Time,TemperatureF,DewpointF,PressureIn,WindDirection,WindDirectionDegrees,WindSpeedMPH,WindSpeedGustMPH,Humidity,HourlyPrecipIn,Conditions,Clouds,dailyrainin,SolarRadiationWatts/m^2,SoftwareType,DateUTC
2013-07-17 00:01:00,77.2,72.3,30.12,East,82,3.0,5.0,85,0.00,,,0.30,0.0,meteohub,2013-07-17 04:01:00,
2013-07-17 00:06:00,77.2,72.0,30.12,East,82,2.0,5.0,84,0.00,,,0.00,0.0,meteohub,2013-07-17 04:06:00,
2013-07-17 00:11:00,77.2,72.0,30.12,East,82,2.0,5.0,84,0.00,,,0.00,0.0,meteohub,2013-07-17 04:11:00,
2013-07-17 00:16:00,76.8,72.0,30.11,East,82,0.0,5.0,85,0.00,,,0.00,0.0,meteohub,2013-07-17 04:16:00,
2013-07-17 00:21:00,76.8,72.0,30.11,East,82,3.0,5.0,85,0.00,,,0.00,0.0,meteohub,2013-07-17 04:21:00,
2013-07-17 00:26:00,76.8,72.0,30.11,East,82,1.0,5.0,85,0.00,,,0.00,0.0,meteohub,2013-07-17 04:26:00,
2013-07-17 00:31:00,77.0,72.1,30.11,East,82,2.0,5.0,85,0.00,,,0.00,0.0,meteohub,2013-07-17 04:31:00,
2013-07-17 00:36:00,77.0,72.1,30.11,East,82,1.0,5.0,85,0.00,,,0.00,0.0,meteohub,2013-07-17 04:36:00,
2013-07-17 00:41:00,76.8,72.0,30.11,East,82,0.0,3.0,85,0.00,,,0.00,0.0,meteohub,2013-07-17 04:41:00,
2013-07-17 00:46:00,76.8,72.3,30.10,East,82,0.0,3.0,86,0.00,,,0.00,0.0,meteohub,2013-07-17 04:46:00,
2013-07-17 00:52:00,76.6,72.1,30.10,East,81,1.0,3.0,86,0.00,,,0.00,0.0,meteohub,2013-07-17 04:52:00,
2013-07-17 00:57:00,76.6,72.1,30.10,East,82,0.0,3.0,86,0.00,,,0.00,0.0,meteohub,2013-07-17 04:57:00,
2013-07-17 01:00:00,76.5,72.3,30.10,East,82,0.0,3.0,87,0.00,,,0.00,0.0,meteohub,2013-07-17 05:00:00,
2013-07-17 01:05:00,76.5,72.3,30.09,East,82,0.0,2.0,87,0.00,,,0.00,0.0,meteohub,2013-07-17 05:05:00,
2013-07-17 01:10:00,76.3,72.1,30.10,East,82,0.0,1.0,87,0.00,,,0.00,0.0,meteohub,2013-07-17 05:10:00,
2013-07-17 01:15:00,76.1,72.3,30.10,East,82,0.0,1.0,88,0.00,,,0.00,0.0,meteohub,2013-07-17 05:15:00,
2013-07-17 01:20:00,75.6,72.1,30.10,East,82,2.0,2.0,89,0.00,,,0.00,0.0,meteohub,2013-07-17 05:20:00,
2013-07-17 01:25:00,75.4,72.3,30.10,East,82,2.0,3.0,90,0.00,,,0.00,0.0,meteohub,2013-07-17 05:25:00,
2013-07-17 01:30:00,75.6,72.5,30.10,East,81,1.0,5.0,90,0.00,,,0.00,0.0,meteohub,2013-07-17 05:30:00,
2013-07-17 01:35:00,75.9,72.5,30.10,East,82,2.0,5.0,89,0.00,,,0.00,0.0,meteohub,2013-07-17 05:35:00,
2013-07-17 01:40:00,76.3,72.9,30.10,East,82,2.0,5.0,89,0.00,,,0.00,0.0,meteohub,2013-07-17 05:40:00,
2013-07-17 01:45:00,76.5,72.7,30.10,East,82,1.0,5.0,88,0.00,,,0.00,0.0,meteohub,2013-07-17 05:45:00,
2013-07-17 01:50:00,76.6,72.9,30.09,East,82,0.0,5.0,88,0.00,,,0.00,0.0,meteohub,2013-07-17 05:50:00,
2013-07-17 01:55:00,76.8,73.0,30.09,East,82,1.0,5.0,88,0.00,,,0.00,0.0,meteohub,2013-07-17 05:55:00,
2013-07-17 02:00:00,77.4,73.2,30.09,East,82,2.0,5.0,87,0.00,,,0.00,0.0,meteohub,2013-07-17 06:00:00,
2013-07-17 02:05:00,77.5,73.4,30.09,East,82,2.0,5.0,87,0.00,,,0.00,0.0,meteohub,2013-07-17 06:05:00,
2013-07-17 02:10:00,77.9,73.8,30.09,ENE,78,1.0,5.0,87,0.00,,,0.00,0.0,meteohub,2013-07-17 06:10:00,
2013-07-17 02:15:00,77.2,72.3,30.09,SSE,160,4.0,9.0,85,0.00,,,0.00,0.0,meteohub,2013-07-17 06:15:00,
2013-07-17 02:20:00,76.5,72.0,30.09,SSW,194,3.0,9.0,86,0.00,,,0.00,0.0,meteohub,2013-07-17 06:20:00,
2013-07-17 02:25:00,76.3,72.1,30.09,East,89,0.0,9.0,87,0.00,,,0.00,0.0,meteohub,2013-07-17 06:25:00,
2013-07-17 02:30:00,76.3,72.1,30.08,East,89,1.0,8.0,87,0.00,,,0.00,0.0,meteohub,2013-07-17 06:30:00,
2013-07-17 02:35:00,76.3,72.5,30.08,East,89,1.0,6.0,88,0.00,,,0.00,0.0,meteohub,2013-07-17 06:35:00,
2013-07-17 02:41:00,76.1,72.3,30.09,East,89,1.0,2.0,88,0.00,,,0.00,0.0,meteohub,2013-07-17 06:41:00,
2013-07-17 02:46:00,75.9,72.1,30.08,East,89,0.0,2.0,88,0.00,,,0.00,0.0,meteohub,2013-07-17 06:46:00,
2013-07-17 02:51:00,75.9,72.5,30.08,East,89,0.0,2.0,89,0.00,,,0.00,0.0,meteohub,2013-07-17 06:51:00,
2013-07-17 02:56:00,75.9,72.5,30.08,East,89,0.0,1.0,89,0.00,,,0.00,0.0,meteohub,2013-07-17 06:56:00,
2013-07-17 03:01:00,75.9,72.5,30.07,East,89,0.0,0.0,89,0.00,,,0.00,0.0,meteohub,2013-07-17 07:01:00,
2013-07-17 03:06:00,75.9,72.9,30.07,East,89,0.0,3.0,90,0.00,,,0.00,0.0,meteohub,2013-07-17 07:06:00,
2013-07-17 03:11:00,76.3,73.0,30.07,East,89,1.0,3.0,90,0.00,,,0.00,0.0,meteohub,2013-07-17 07:11:00,
2013-07-17 03:16:00,76.5,73.0,30.07,East,89,0.0,3.0,89,0.00,,,0.00,0.0,meteohub,2013-07-17 07:16:00,
2013-07-17 03:21:00,76.5,73.0,30.06,East,90,1.0,3.0,89,0.00,,,0.00,0.0,meteohub,2013-07-17 07:21:00,
2013-07-17 03:26:00,76.5,72.7,30.06,East,92,3.0,3.0,88,0.00,,,0.00,0.0,meteohub,2013-07-17 07:26:00,
2013-07-17 03:31:00,76.5,72.0,30.06,East,96,2.0,5.0,86,0.00,,,0.00,0.0,meteohub,2013-07-17 07:31:00,
2013-07-17 03:36:00,76.6,71.4,30.06,East,97,1.0,5.0,84,0.00,,,0.00,0.0,meteohub,2013-07-17 07:36:00,
2013-07-17 03:41:00,77.0,71.4,30.06,East,97,3.0,5.0,83,0.00,,,0.00,0.0,meteohub,2013-07-17 07:41:00,
2013-07-17 03:46:00,77.2,71.2,30.07,East,97,1.0,5.0,82,0.00,,,0.00,0.0,meteohub,2013-07-17 07:46:00,
2013-07-17 03:51:00,77.2,71.2,30.07,East,97,2.0,3.0,82,0.00,,,0.00,0.0,meteohub,2013-07-17 07:51:00,
2013-07-17 03:56:00,77.4,71.4,30.07,East,97,0.0,3.0,82,0.00,,,0.00,0.0,meteohub,2013-07-17 07:56:00,
2013-07-17 04:01:00,77.2,71.6,30.07,East,97,0.0,2.0,83,0.00,,,0.00,0.0,meteohub,2013-07-17 08:01:00,
2013-07-17 04:06:00,77.4,72.1,30.07,East,97,0.0,2.0,84,0.00,,,0.00,0.0,meteohub,2013-07-17 08:06:00,
2013-07-17 04:11:00,77.4,72.5,30.06,East,97,1.0,3.0,85,0.00,,,0.00,0.0,meteohub,2013-07-17 08:11:00,
2013-07-17 04:16:00,77.4,72.5,30.07,East,97,1.0,3.0,85,0.00,,,0.00,0.0,meteohub,2013-07-17 08:16:00,
2013-07-17 04:21:00,77.2,72.7,30.07,East,97,0.0,3.0,86,0.00,,,0.00,0.0,meteohub,2013-07-17 08:21:00,
2013-07-17 04:26:00,77.2,72.7,30.07,East,97,2.0,3.0,86,0.00,,,0.00,0.0,meteohub,2013-07-17 08:26:00,
2013-07-17 04:31:00,77.2,73.0,30.07,East,97,2.0,3.0,87,0.00,,,0.00,0.0,meteohub,2013-07-17 08:31:00,
2013-07-17 04:36:00,76.8,72.7,30.07,East,97,1.0,3.0,87,0.00,,,0.00,0.0,meteohub,2013-07-17 08:36:00,
2013-07-17 04:42:00,76.6,72.9,30.06,East,97,2.0,3.0,88,0.00,,,0.00,0.0,meteohub,2013-07-17 08:42:00,
2013-07-17 04:47:00,76.6,73.2,30.07,East,97,0.0,2.0,89,0.00,,,0.00,0.0,meteohub,2013-07-17 08:47:00,
2013-07-17 04:52:00,76.6,73.2,30.06,East,97,2.0,3.0,89,0.00,,,0.00,0.0,meteohub,2013-07-17 08:52:00,
2013-07-17 04:57:00,76.5,73.0,30.06,East,97,2.0,3.0,89,0.00,,,0.00,0.0,meteohub,2013-07-17 08:57:00,
2013-07-17 05:02:00,76.5,73.0,30.07,East,97,1.0,3.0,89,0.00,,,0.00,0.0,meteohub,2013-07-17 09:02:00,
2013-07-17 05:07:00,76.6,72.9,30.07,East,97,1.0,5.0,88,0.00,,,0.00,0.0,meteohub,2013-07-17 09:07:00,
2013-07-17 05:12:00,76.6,72.9,30.07,East,97,1.0,5.0,88,0.00,,,0.00,0.0,meteohub,2013-07-17 09:12:00,
2013-07-17 05:17:00,76.6,73.2,30.07,East,97,0.0,5.0,89,0.00,,,0.00,0.0,meteohub,2013-07-17 09:17:00,
2013-07-17 05:22:00,76.5,73.0,30.06,East,97,0.0,3.0,89,0.00,,,0.00,0.0,meteohub,2013-07-17 09:22:00,
2013-07-17 05:27:00,76.6,73.2,30.07,East,97,5.0,5.0,89,0.00,,,0.00,0.0,meteohub,2013-07-17 09:27:00,
2013-07-17 05:32:00,77.0,73.2,30.08,East,96,1.0,6.0,88,0.00,,,0.00,0.0,meteohub,2013-07-17 09:32:00,
2013-07-17 05:37:00,77.4,73.2,30.08,East,96,1.0,6.0,87,0.00,,,0.00,0.0,meteohub,2013-07-17 09:37:00,
2013-07-17 05:42:00,77.7,73.6,30.08,East,93,1.0,6.0,87,0.00,,,0.00,0.0,meteohub,2013-07-17 09:42:00,
2013-07-17 05:47:00,77.9,73.4,30.08,ENE,74,2.0,5.0,86,0.00,,,0.00,0.0,meteohub,2013-07-17 09:47:00,
2013-07-17 05:52:00,78.1,73.2,30.08,ENE,71,2.0,7.0,85,0.00,,,0.00,0.0,meteohub,2013-07-17 09:52:00,
2013-07-17 05:57:00,78.1,73.2,30.08,ENE,66,3.0,7.0,85,0.00,,,0.00,0.0,meteohub,2013-07-17 09:57:00,
2013-07-17 06:02:00,78.1,72.9,30.08,ENE,67,7.0,7.0,84,0.00,,,0.00,0.0,meteohub,2013-07-17 10:02:00,
2013-07-17 06:07:00,78.3,72.7,30.08,ENE,73,3.0,8.0,83,0.00,,,0.00,0.0,meteohub,2013-07-17 10:07:00,
2013-07-17 06:12:00,78.3,72.3,30.09,ENE,76,4.0,8.0,82,0.00,,,0.00,0.0,meteohub,2013-07-17 10:12:00,
2013-07-17 06:17:00,78.4,72.5,30.09,East,98,3.0,8.0,82,0.00,,,0.00,0.0,meteohub,2013-07-17 10:17:00,
2013-07-17 06:22:00,78.4,72.5,30.09,East,96,5.0,5.0,82,0.00,,,0.00,0.0,meteohub,2013-07-17 10:22:00,
2013-07-17 06:27:00,78.4,72.1,30.09,East,90,3.0,8.0,81,0.00,,,0.00,0.0,meteohub,2013-07-17 10:27:00,
2013-07-17 06:32:00,78.6,72.3,30.09,East,82,7.0,8.0,81,0.00,,,0.00,0.0,meteohub,2013-07-17 10:32:00,
2013-07-17 06:37:00,78.6,72.7,30.10,East,94,2.0,8.0,82,0.00,,,0.00,0.0,meteohub,2013-07-17 10:37:00,
2013-07-17 06:42:00,78.8,72.9,30.10,ENE,76,5.0,8.0,82,0.00,,,0.00,0.0,meteohub,2013-07-17 10:42:00,
2013-07-17 06:47:00,79.0,73.0,30.10,East,99,2.0,8.0,82,0.00,,,0.00,5.0,meteohub,2013-07-17 10:47:00,
2013-07-17 06:52:00,78.8,73.2,30.11,East,90,2.0,8.0,83,0.00,,,0.00,11.0,meteohub,2013-07-17 10:52:00,
2013-07-17 06:57:00,79.0,73.4,30.11,ENE,77,4.0,8.0,83,0.00,,,0.00,14.0,meteohub,2013-07-17 10:57:00,
2013-07-17 07:02:00,79.0,73.4,30.11,East,80,6.0,8.0,83,0.00,,,0.00,19.0,meteohub,2013-07-17 11:02:00,
2013-07-17 07:07:00,79.2,73.6,30.11,ESE,105,2.0,9.0,83,0.00,,,0.00,30.0,meteohub,2013-07-17 11:07:00,
2013-07-17 07:12:00,79.2,73.2,30.11,East,94,8.0,9.0,82,0.00,,,0.00,32.0,meteohub,2013-07-17 11:12:00,
2013-07-17 07:17:00,79.3,73.4,30.12,East,81,6.0,8.0,82,0.00,,,0.00,37.0,meteohub,2013-07-17 11:17:00,
2013-07-17 07:22:00,79.5,73.2,30.12,East,86,3.0,8.0,81,0.00,,,0.00,42.0,meteohub,2013-07-17 11:22:00,
2013-07-17 07:27:00,79.5,73.6,30.12,ENE,66,5.0,9.0,82,0.00,,,0.00,47.0,meteohub,2013-07-17 11:27:00,
2013-07-17 07:32:00,79.5,73.6,30.12,East,90,5.0,9.0,82,0.00,,,0.00,49.0,meteohub,2013-07-17 11:32:00,
2013-07-17 07:37:00,79.5,73.6,30.11,ENE,72,5.0,8.0,82,0.00,,,0.00,44.0,meteohub,2013-07-17 11:37:00,
2013-07-17 07:42:00,79.5,73.6,30.11,ENE,72,5.0,9.0,82,0.00,,,0.00,49.0,meteohub,2013-07-17 11:42:00,
2013-07-17 07:47:00,79.5,73.6,30.11,East,84,2.0,9.0,82,0.00,,,0.00,65.0,meteohub,2013-07-17 11:47:00,
2013-07-17 07:52:00,79.7,73.8,30.11,East,81,8.0,9.0,82,0.00,,,0.00,37.0,meteohub,2013-07-17 11:52:00,
2013-07-17 07:57:00,79.7,73.8,30.11,ENE,78,2.0,9.0,82,0.00,,,0.00,39.0,meteohub,2013-07-17 11:57:00,
2013-07-17 08:02:00,79.5,73.6,30.11,ENE,71,4.0,9.0,82,0.00,,,0.00,47.0,meteohub,2013-07-17 12:02:00,
2013-07-17 08:07:00,79.5,73.6,30.11,ENE,69,5.0,9.0,82,0.00,,,0.00,42.0,meteohub,2013-07-17 12:07:00,
2013-07-17 08:12:00,79.5,73.9,30.11,East,88,3.0,7.0,83,0.00,,,0.00,26.0,meteohub,2013-07-17 12:12:00,
2013-07-17 08:17:00,78.6,73.8,30.12,SSE,155,6.0,7.0,85,0.00,,,0.00,16.0,meteohub,2013-07-17 12:17:00,
2013-07-17 08:22:00,77.5,73.4,30.12,East,101,10.0,10.0,87,0.00,,,0.00,23.0,meteohub,2013-07-17 12:22:00,
2013-07-17 08:27:00,76.3,72.1,30.11,East,90,3.0,10.0,87,0.01,,,0.01,33.0,meteohub,2013-07-17 12:27:00,
2013-07-17 08:32:00,75.4,71.6,30.11,East,98,2.0,10.0,88,0.02,,,0.02,40.0,meteohub,2013-07-17 12:32:00,
2013-07-17 08:37:00,75.0,71.6,30.11,ESE,103,2.0,10.0,89,0.03,,,0.03,49.0,meteohub,2013-07-17 12:37:00,
2013-07-17 08:42:00,75.0,72.0,30.11,ENE,76,0.0,7.0,90,0.03,,,0.03,56.0,meteohub,2013-07-17 12:42:00,
2013-07-17 08:47:00,75.2,72.3,30.11,ENE,76,2.0,5.0,91,0.03,,,0.03,65.0,meteohub,2013-07-17 12:47:00,
2013-07-17 08:52:00,75.2,72.3,30.11,ENE,76,2.0,5.0,91,0.03,,,0.03,72.0,meteohub,2013-07-17 12:52:00,
2013-07-17 08:57:00,75.4,72.5,30.11,ENE,76,0.0,4.0,91,0.03,,,0.03,86.0,meteohub,2013-07-17 12:57:00,
2013-07-17 09:02:00,75.7,73.2,30.11,ENE,76,1.0,4.0,92,0.03,,,0.03,104.0,meteohub,2013-07-17 13:02:00,
2013-07-17 09:07:00,75.9,73.4,30.11,ENE,77,2.0,4.0,92,0.04,,,0.03,114.0,meteohub,2013-07-17 13:07:00,
2013-07-17 09:12:00,76.3,73.4,30.12,East,96,0.0,4.0,91,0.04,,,0.04,109.0,meteohub,2013-07-17 13:12:00,
2013-07-17 09:17:00,76.6,73.8,30.12,East,96,1.0,3.0,91,0.04,,,0.04,88.0,meteohub,2013-07-17 13:17:00,
2013-07-17 09:22:00,77.2,74.3,30.12,East,96,0.0,3.0,91,0.03,,,0.04,81.0,meteohub,2013-07-17 13:22:00,
2013-07-17 09:27:00,77.4,74.5,30.12,East,96,1.0,3.0,91,0.02,,,0.04,70.0,meteohub,2013-07-17 13:27:00,
2013-07-17 09:32:00,77.5,74.3,30.12,NE,36,2.0,3.0,90,0.02,,,0.04,58.0,meteohub,2013-07-17 13:32:00,
2013-07-17 09:37:00,77.7,74.5,30.12,NE,36,0.0,3.0,90,0.01,,,0.04,44.0,meteohub,2013-07-17 13:37:00,
2013-07-17 09:42:00,77.7,74.5,30.12,NE,36,0.0,3.0,90,0.01,,,0.04,37.0,meteohub,2013-07-17 13:42:00,
2013-07-17 09:47:00,78.1,74.8,30.11,NE,36,1.0,3.0,90,0.01,,,0.04,33.0,meteohub,2013-07-17 13:47:00,
2013-07-17 09:52:00,78.3,75.0,30.11,NE,36,1.0,3.0,90,0.01,,,0.04,32.0,meteohub,2013-07-17 13:52:00,
2013-07-17 09:57:00,78.3,74.7,30.11,NE,36,0.0,3.0,89,0.01,,,0.04,30.0,meteohub,2013-07-17 13:57:00,
2013-07-17 10:02:00,78.4,74.8,30.12,NE,36,0.0,3.0,89,0.01,,,0.04,28.0,meteohub,2013-07-17 14:02:00,
2013-07-17 10:07:00,78.4,74.7,30.12,ENE,69,2.0,3.0,88,0.00,,,0.04,26.0,meteohub,2013-07-17 14:07:00,
2013-07-17 10:12:00,78.4,74.7,30.12,East,91,3.0,3.0,88,0.00,,,0.04,25.0,meteohub,2013-07-17 14:12:00,
2013-07-17 10:17:00,78.4,74.7,30.12,East,101,2.0,5.0,88,0.00,,,0.04,23.0,meteohub,2013-07-17 14:17:00,
2013-07-17 10:22:00,78.3,74.7,30.13,East,101,0.0,5.0,89,0.00,,,0.04,16.0,meteohub,2013-07-17 14:22:00,
2013-07-17 10:27:00,78.3,74.7,30.13,ESE,114,1.0,5.0,89,0.00,,,0.04,11.0,meteohub,2013-07-17 14:27:00,
2013-07-17 10:32:00,78.1,74.5,30.14,SSW,194,6.0,6.0,89,0.00,,,0.04,12.0,meteohub,2013-07-17 14:32:00,
2013-07-17 10:37:00,76.6,73.4,30.13,South,178,3.0,10.0,90,0.00,,,0.04,14.0,meteohub,2013-07-17 14:37:00,
2013-07-17 10:42:00,75.9,73.0,30.13,South,174,4.0,10.0,91,0.00,,,0.04,19.0,meteohub,2013-07-17 14:42:00,
2013-07-17 10:47:00,75.6,73.0,30.13,SSW,197,6.0,10.0,92,0.00,,,0.04,14.0,meteohub,2013-07-17 14:47:00,
2013-07-17 10:52:00,75.2,73.0,30.14,SSW,207,7.0,10.0,93,0.00,,,0.04,16.0,meteohub,2013-07-17 14:52:00,
2013-07-17 10:57:00,74.8,72.7,30.14,South,178,2.0,8.0,93,0.00,,,0.04,14.0,meteohub,2013-07-17 14:57:00,
2013-07-17 11:02:00,74.5,72.3,30.14,SSW,205,8.0,9.0,93,0.00,,,0.04,19.0,meteohub,2013-07-17 15:02:00,
2013-07-17 11:07:00,74.1,72.0,30.14,South,180,5.0,10.0,93,0.00,,,0.04,11.0,meteohub,2013-07-17 15:07:00,
2013-07-17 11:12:00,74.1,72.0,30.14,SSW,194,2.0,10.0,93,0.01,,,0.05,26.0,meteohub,2013-07-17 15:12:00,
2013-07-17 11:17:00,73.9,72.1,30.14,South,175,5.0,10.0,94,0.01,,,0.05,42.0,meteohub,2013-07-17 15:17:00,
2013-07-17 11:22:00,73.9,72.1,30.14,SSE,165,4.0,10.0,94,0.02,,,0.06,46.0,meteohub,2013-07-17 15:22:00,
2013-07-17 11:27:00,73.9,72.1,30.14,SSE,166,3.0,7.0,94,0.02,,,0.06,46.0,meteohub,2013-07-17 15:27:00,
2013-07-17 11:33:00,73.9,72.1,30.14,SSE,154,5.0,7.0,94,0.02,,,0.06,63.0,meteohub,2013-07-17 15:33:00,
2013-07-17 11:38:00,73.9,72.1,30.14,SSE,154,4.0,6.0,94,0.03,,,0.07,69.0,meteohub,2013-07-17 15:38:00,
2013-07-17 11:43:00,73.8,72.0,30.13,South,171,2.0,7.0,94,0.03,,,0.07,74.0,meteohub,2013-07-17 15:43:00,
2013-07-17 11:48:00,73.9,72.1,30.13,SSE,153,3.0,7.0,94,0.04,,,0.08,58.0,meteohub,2013-07-17 15:48:00,
2013-07-17 11:53:00,73.9,72.1,30.13,SSE,150,2.0,7.0,94,0.04,,,0.08,51.0,meteohub,2013-07-17 15:53:00,
2013-07-17 11:58:00,73.9,72.1,30.14,SE,136,5.0,6.0,94,0.04,,,0.08,49.0,meteohub,2013-07-17 15:58:00,
2013-07-17 12:03:00,73.9,72.1,30.14,SE,141,4.0,6.0,94,0.05,,,0.09,70.0,meteohub,2013-07-17 16:03:00,
2013-07-17 12:08:00,73.9,72.5,30.14,SSE,156,6.0,7.0,95,0.06,,,0.10,74.0,meteohub,2013-07-17 16:08:00,
2013-07-17 12:13:00,73.9,72.5,30.15,SSE,166,6.0,7.0,95,0.05,,,0.10,69.0,meteohub,2013-07-17 16:13:00,
2013-07-17 12:18:00,73.9,72.5,30.15,SE,127,7.0,10.0,95,0.06,,,0.11,19.0,meteohub,2013-07-17 16:18:00,
2013-07-17 12:23:00,73.9,72.5,30.15,SSE,163,9.0,14.0,95,0.05,,,0.11,37.0,meteohub,2013-07-17 16:23:00,
2013-07-17 12:28:00,73.6,72.1,30.15,SSE,166,7.0,14.0,95,0.06,,,0.12,51.0,meteohub,2013-07-17 16:28:00,
2013-07-17 12:33:00,73.4,72.0,30.14,SE,142,10.0,14.0,95,0.06,,,0.13,58.0,meteohub,2013-07-17 16:33:00,
2013-07-17 12:38:00,73.4,72.0,30.14,South,175,6.0,15.0,95,0.07,,,0.14,58.0,meteohub,2013-07-17 16:38:00,
2013-07-17 12:43:00,73.6,72.1,30.14,SSE,161,2.0,15.0,95,0.07,,,0.15,72.0,meteohub,2013-07-17 16:43:00,
2013-07-17 12:48:00,73.6,72.1,30.14,SSE,150,2.0,15.0,95,0.08,,,0.16,91.0,meteohub,2013-07-17 16:48:00,
2013-07-17 12:53:00,73.6,72.1,30.13,SE,134,5.0,9.0,95,0.08,,,0.16,113.0,meteohub,2013-07-17 16:53:00,
2013-07-17 12:58:00,73.8,72.3,30.13,SSE,148,1.0,9.0,95,0.07,,,0.16,135.0,meteohub,2013-07-17 16:58:00,
2013-07-17 13:03:00,73.9,72.5,30.13,SE,136,3.0,6.0,95,0.08,,,0.17,158.0,meteohub,2013-07-17 17:03:00,
2013-07-17 13:08:00,74.3,72.9,30.13,SSE,153,4.0,6.0,95,0.07,,,0.17,188.0,meteohub,2013-07-17 17:08:00,
2013-07-17 13:13:00,74.7,73.2,30.13,SE,143,4.0,6.0,95,0.07,,,0.17,216.0,meteohub,2013-07-17 17:13:00,
2013-07-17 13:18:00,75.0,73.4,30.12,SSE,155,4.0,6.0,95,0.06,,,0.17,241.0,meteohub,2013-07-17 17:18:00,
2013-07-17 13:23:00,75.4,73.6,30.12,SE,142,5.0,6.0,94,0.06,,,0.17,246.0,meteohub,2013-07-17 17:23:00,
2013-07-17 13:28:00,75.7,73.9,30.12,SE,131,4.0,8.0,94,0.05,,,0.17,241.0,meteohub,2013-07-17 17:28:00,
2013-07-17 13:33:00,75.9,73.4,30.12,SE,138,7.0,8.0,92,0.04,,,0.17,230.0,meteohub,2013-07-17 17:33:00,
2013-07-17 13:38:00,75.9,73.0,30.12,SE,134,6.0,8.0,91,0.03,,,0.17,221.0,meteohub,2013-07-17 17:38:00,
2013-07-17 13:43:00,75.9,72.5,30.12,SSE,147,4.0,9.0,89,0.03,,,0.18,216.0,meteohub,2013-07-17 17:43:00,
2013-07-17 13:48:00,76.1,72.7,30.12,South,170,4.0,10.0,89,0.02,,,0.18,213.0,meteohub,2013-07-17 17:48:00,
2013-07-17 13:53:00,76.3,73.0,30.13,SSE,153,4.0,10.0,90,0.02,,,0.18,214.0,meteohub,2013-07-17 17:53:00,
2013-07-17 13:58:00,76.5,73.2,30.12,ESE,114,5.0,10.0,90,0.01,,,0.18,221.0,meteohub,2013-07-17 17:58:00,
2013-07-17 14:03:00,76.5,73.2,30.12,SE,137,4.0,9.0,90,0.01,,,0.18,234.0,meteohub,2013-07-17 18:03:00,
2013-07-17 14:08:00,76.5,73.2,30.12,ESE,121,2.0,9.0,90,0.01,,,0.18,248.0,meteohub,2013-07-17 18:08:00,
2013-07-17 14:13:00,76.6,73.4,30.11,ESE,109,1.0,9.0,90,0.01,,,0.18,258.0,meteohub,2013-07-17 18:13:00,
2013-07-17 14:18:00,77.2,73.9,30.11,East,79,0.0,9.0,90,0.01,,,0.18,262.0,meteohub,2013-07-17 18:18:00,
2013-07-17 14:23:00,77.0,73.8,30.11,East,99,3.0,7.0,90,0.01,,,0.18,264.0,meteohub,2013-07-17 18:23:00,
2013-07-17 14:29:00,77.4,73.9,30.11,ESE,108,3.0,7.0,89,0.01,,,0.18,267.0,meteohub,2013-07-17 18:29:00,
2013-07-17 14:34:00,77.4,73.9,30.12,ESE,103,3.0,7.0,89,0.01,,,0.18,276.0,meteohub,2013-07-17 18:34:00,
2013-07-17 14:39:00,77.7,74.5,30.12,ESE,106,8.0,8.0,90,0.01,,,0.18,221.0,meteohub,2013-07-17 18:39:00,
2013-07-17 14:44:00,77.7,74.3,30.12,East,99,7.0,9.0,89,0.00,,,0.18,279.0,meteohub,2013-07-17 18:44:00,
2013-07-17 14:49:00,78.1,74.3,30.12,East,94,6.0,9.0,88,0.00,,,0.18,276.0,meteohub,2013-07-17 18:49:00,
2013-07-17 14:54:00,78.1,74.3,30.12,ESE,107,7.0,10.0,88,0.00,,,0.18,149.0,meteohub,2013-07-17 18:54:00,
2013-07-17 14:59:00,78.1,74.3,30.12,East,96,5.0,10.0,88,0.00,,,0.18,262.0,meteohub,2013-07-17 18:59:00,
2013-07-17 15:04:00,78.3,74.5,30.11,ESE,117,7.0,13.0,88,0.00,,,0.18,206.0,meteohub,2013-07-17 19:04:00,
2013-07-17 15:09:00,78.3,74.7,30.11,SE,124,7.0,13.0,89,0.00,,,0.18,265.0,meteohub,2013-07-17 19:09:00,
2013-07-17 15:14:00,78.1,74.3,30.11,ESE,103,5.0,9.0,88,0.00,,,0.18,271.0,meteohub,2013-07-17 19:14:00,
2013-07-17 15:19:00,78.4,74.7,30.11,East,94,6.0,10.0,88,0.00,,,0.18,272.0,meteohub,2013-07-17 19:19:00,
2013-07-17 15:24:00,78.3,74.1,30.11,ESE,109,3.0,10.0,87,0.00,,,0.18,265.0,meteohub,2013-07-17 19:24:00,
2013-07-17 15:29:00,78.4,74.7,30.11,ESE,108,8.0,10.0,88,0.00,,,0.18,258.0,meteohub,2013-07-17 19:29:00,
2013-07-17 15:34:00,78.4,74.3,30.10,East,88,3.0,11.0,87,0.00,,,0.18,271.0,meteohub,2013-07-17 19:34:00,
2013-07-17 15:39:00,78.6,74.8,30.11,East,90,2.0,11.0,88,0.00,,,0.18,272.0,meteohub,2013-07-17 19:39:00,
2013-07-17 15:44:00,78.6,74.5,30.10,East,98,7.0,11.0,87,0.00,,,0.18,299.0,meteohub,2013-07-17 19:44:00,
2013-07-17 15:49:00,79.0,74.8,30.10,ESE,108,5.0,11.0,87,0.00,,,0.18,338.0,meteohub,2013-07-17 19:49:00,
2013-07-17 15:54:00,79.0,74.5,30.10,SE,131,6.0,11.0,86,0.00,,,0.18,346.0,meteohub,2013-07-17 19:54:00,
2013-07-17 15:59:00,79.2,73.9,30.10,SE,131,7.0,11.0,84,0.00,,,0.18,364.0,meteohub,2013-07-17 19:59:00,
2013-07-17 16:04:00,79.5,74.3,30.10,ESE,103,9.0,11.0,84,0.00,,,0.18,352.0,meteohub,2013-07-17 20:04:00,
2013-07-17 16:09:00,79.5,73.9,30.09,ESE,106,5.0,11.0,83,0.00,,,0.18,304.0,meteohub,2013-07-17 20:09:00,
2013-07-17 16:14:00,79.5,73.6,30.09,ENE,71,4.0,11.0,82,0.00,,,0.18,202.0,meteohub,2013-07-17 20:14:00,
2013-07-17 16:19:00,79.3,73.8,30.09,ESE,107,5.0,12.0,83,0.00,,,0.18,250.0,meteohub,2013-07-17 20:19:00,
2013-07-17 16:24:00,79.5,73.6,30.09,ENE,71,7.0,12.0,82,0.00,,,0.18,306.0,meteohub,2013-07-17 20:24:00,
2013-07-17 16:29:00,79.5,73.2,30.08,East,98,6.0,12.0,81,0.00,,,0.18,325.0,meteohub,2013-07-17 20:29:00,
2013-07-17 16:34:00,79.9,73.2,30.08,East,87,10.0,11.0,80,0.00,,,0.18,457.0,meteohub,2013-07-17 20:34:00,
2013-07-17 16:39:00,80.2,73.6,30.08,ESE,104,10.0,11.0,80,0.00,,,0.18,429.0,meteohub,2013-07-17 20:39:00,
2013-07-17 16:44:00,80.4,73.8,30.07,East,90,8.0,11.0,80,0.00,,,0.18,373.0,meteohub,2013-07-17 20:44:00,
2013-07-17 16:49:00,80.2,73.6,30.07,ESE,109,5.0,11.0,80,0.00,,,0.18,520.0,meteohub,2013-07-17 20:49:00,
2013-07-17 16:54:00,80.6,73.9,30.07,East,90,7.0,12.0,80,0.00,,,0.18,536.0,meteohub,2013-07-17 20:54:00,
2013-07-17 16:59:00,81.0,74.1,30.07,East,99,14.0,14.0,80,0.00,,,0.18,322.0,meteohub,2013-07-17 20:59:00,
2013-07-17 17:04:00,81.1,73.9,30.06,East,100,5.0,14.0,79,0.00,,,0.18,153.0,meteohub,2013-07-17 21:04:00,
2013-07-17 17:09:00,80.6,73.9,30.06,East,99,6.0,15.0,80,0.00,,,0.18,239.0,meteohub,2013-07-17 21:09:00,
2013-07-17 17:14:00,80.4,74.1,30.06,East,82,5.0,15.0,81,0.00,,,0.18,181.0,meteohub,2013-07-17 21:14:00,
2013-07-17 17:19:00,80.2,74.3,30.05,ENE,73,3.0,14.0,82,0.00,,,0.18,197.0,meteohub,2013-07-17 21:19:00,
2013-07-17 17:24:00,80.6,74.3,30.05,East,90,7.0,14.0,81,0.00,,,0.18,206.0,meteohub,2013-07-17 21:24:00,
2013-07-17 17:29:00,81.3,74.1,30.05,ENE,73,7.0,11.0,79,0.00,,,0.18,179.0,meteohub,2013-07-17 21:29:00,
2013-07-17 17:34:00,81.5,74.7,30.05,ENE,73,4.0,11.0,80,0.00,,,0.18,178.0,meteohub,2013-07-17 21:34:00,
2013-07-17 17:39:00,81.3,74.5,30.04,ENE,78,10.0,12.0,80,0.00,,,0.18,206.0,meteohub,2013-07-17 21:39:00,
2013-07-17 17:45:00,81.0,74.7,30.04,ESE,103,12.0,13.0,81,0.00,,,0.18,265.0,meteohub,2013-07-17 21:45:00,
2013-07-17 17:50:00,80.8,74.5,30.04,ENE,76,7.0,13.0,81,0.00,,,0.18,139.0,meteohub,2013-07-17 21:50:00,
2013-07-17 17:55:00,80.4,74.1,30.04,ESE,107,8.0,13.0,81,0.00,,,0.18,202.0,meteohub,2013-07-17 21:55:00,
2013-07-17 18:00:00,80.4,74.5,30.05,East,79,10.0,15.0,82,0.00,,,0.18,186.0,meteohub,2013-07-17 22:00:00,
2013-07-17 18:05:00,80.4,74.5,30.05,East,96,8.0,15.0,82,0.00,,,0.18,192.0,meteohub,2013-07-17 22:05:00,
2013-07-17 18:10:00,80.8,74.5,30.05,East,98,7.0,15.0,81,0.00,,,0.18,176.0,meteohub,2013-07-17 22:10:00,
2013-07-17 18:15:00,80.4,74.5,30.05,East,90,6.0,14.0,82,0.00,,,0.18,148.0,meteohub,2013-07-17 22:15:00,
2013-07-17 18:20:00,80.2,74.3,30.06,ESE,102,8.0,13.0,82,0.00,,,0.18,100.0,meteohub,2013-07-17 22:20:00,
2013-07-17 18:25:00,80.2,74.3,30.06,East,90,9.0,13.0,82,0.00,,,0.18,113.0,meteohub,2013-07-17 22:25:00,
2013-07-17 18:30:00,80.1,74.5,30.06,East,93,10.0,13.0,83,0.00,,,0.18,91.0,meteohub,2013-07-17 22:30:00,
2013-07-17 18:35:00,79.9,74.3,30.06,East,92,2.0,13.0,83,0.00,,,0.18,76.0,meteohub,2013-07-17 22:35:00,
2013-07-17 18:40:00,79.9,74.3,30.06,NE,56,6.0,13.0,83,0.00,,,0.18,56.0,meteohub,2013-07-17 22:40:00,
2013-07-17 18:45:00,79.7,74.1,30.06,East,84,7.0,13.0,83,0.00,,,0.18,42.0,meteohub,2013-07-17 22:45:00,
2013-07-17 18:50:00,79.7,74.1,30.06,East,101,7.0,13.0,83,0.00,,,0.18,42.0,meteohub,2013-07-17 22:50:00,
2013-07-17 18:55:00,79.5,73.9,30.06,ENE,60,2.0,9.0,83,0.00,,,0.18,33.0,meteohub,2013-07-17 22:55:00,
2013-07-17 19:00:00,79.5,73.9,30.07,ESE,115,12.0,12.0,83,0.00,,,0.18,18.0,meteohub,2013-07-17 23:00:00,
2013-07-17 19:05:00,76.6,72.5,30.07,SSE,155,6.0,12.0,87,0.00,,,0.18,9.0,meteohub,2013-07-17 23:05:00,
2013-07-17 19:10:00,75.4,72.3,30.07,SSE,152,3.0,15.0,90,0.01,,,0.19,12.0,meteohub,2013-07-17 23:10:00,
2013-07-17 19:15:00,75.6,72.7,30.07,ESE,115,4.0,15.0,91,0.02,,,0.20,19.0,meteohub,2013-07-17 23:15:00,
2013-07-17 19:20:00,75.9,73.0,30.08,ESE,115,2.0,9.0,91,0.03,,,0.21,18.0,meteohub,2013-07-17 23:20:00,
2013-07-17 19:25:00,76.3,73.8,30.08,ESE,115,1.0,5.0,92,0.04,,,0.22,14.0,meteohub,2013-07-17 23:25:00,
2013-07-17 19:30:00,76.3,73.8,30.08,ESE,115,0.0,5.0,92,0.05,,,0.23,12.0,meteohub,2013-07-17 23:30:00,
2013-07-17 19:35:00,76.3,73.8,30.08,ESE,115,0.0,2.0,92,0.06,,,0.24,11.0,meteohub,2013-07-17 23:35:00,
2013-07-17 19:40:00,76.1,73.9,30.08,ESE,115,0.0,2.0,93,0.07,,,0.25,9.0,meteohub,2013-07-17 23:40:00,
2013-07-17 19:45:00,76.3,74.1,30.08,ESE,115,0.0,2.0,93,0.08,,,0.26,7.0,meteohub,2013-07-17 23:45:00,
2013-07-17 19:50:00,76.5,74.3,30.08,ESE,115,0.0,1.0,93,0.09,,,0.27,5.0,meteohub,2013-07-17 23:50:00,
2013-07-17 19:55:00,76.5,74.3,30.08,ESE,115,0.0,0.0,93,0.10,,,0.28,0.0,meteohub,2013-07-17 23:55:00,
2013-07-17 20:00:00,76.3,74.1,30.08,ESE,115,0.0,0.0,93,0.11,,,0.29,0.0,meteohub,2013-07-18 00:00:00,
2013-07-17 20:05:00,76.3,74.5,30.07,ESE,115,0.0,1.0,94,0.12,,,0.30,0.0,meteohub,2013-07-18 00:05:00,
2013-07-17 20:10:00,76.3,74.1,30.07,ESE,115,0.0,1.0,93,0.12,,,0.31,0.0,meteohub,2013-07-18 00:10:00,
2013-07-17 20:15:00,76.3,74.1,30.08,ESE,115,0.0,2.0,93,0.12,,,0.32,0.0,meteohub,2013-07-18 00:15:00,
2013-07-17 20:20:00,76.5,74.3,30.08,ESE,115,0.0,2.0,93,0.11,,,0.32,0.0,meteohub,2013-07-18 00:20:00,
2013-07-17 20:25:00,76.5,74.3,30.08,ESE,115,1.0,2.0,93,0.11,,,0.33,0.0,meteohub,2013-07-18 00:25:00,
2013-07-17 20:30:00,76.5,74.3,30.08,ESE,115,1.0,2.0,93,0.09,,,0.33,0.0,meteohub,2013-07-18 00:30:00,
2013-07-17 20:35:00,76.6,74.5,30.08,ESE,115,0.0,2.0,93,0.09,,,0.34,0.0,meteohub,2013-07-18 00:35:00,
2013-07-17 20:41:00,76.5,74.3,30.08,ESE,115,0.0,2.0,93,0.08,,,0.34,0.0,meteohub,2013-07-18 00:41:00,
2013-07-17 20:45:00,76.5,74.3,30.09,ESE,115,0.0,2.0,93,0.07,,,0.34,0.0,meteohub,2013-07-18 00:45:00,
2013-07-17 20:51:00,76.6,74.5,30.09,ESE,115,0.0,2.0,93,0.06,,,0.34,0.0,meteohub,2013-07-18 00:51:00,
2013-07-17 20:56:00,76.6,74.5,30.08,ESE,115,2.0,2.0,93,0.05,,,0.34,0.0,meteohub,2013-07-18 00:56:00,
2013-07-17 21:01:00,76.6,74.5,30.08,ESE,115,1.0,2.0,93,0.04,,,0.34,0.0,meteohub,2013-07-18 01:01:00,
2013-07-17 21:06:00,76.6,74.5,30.08,ESE,115,1.0,2.0,93,0.04,,,0.34,0.0,meteohub,2013-07-18 01:06:00,
2013-07-17 21:11:00,76.6,74.5,30.08,ESE,115,1.0,2.0,93,0.03,,,0.34,0.0,meteohub,2013-07-18 01:11:00,
2013-07-17 21:16:00,76.6,74.5,30.08,ESE,115,2.0,3.0,93,0.02,,,0.34,0.0,meteohub,2013-07-18 01:16:00,
2013-07-17 21:21:00,76.5,74.3,30.08,ESE,115,1.0,3.0,93,0.01,,,0.34,0.0,meteohub,2013-07-18 01:21:00,
2013-07-17 21:26:00,76.6,74.1,30.09,ESE,115,1.0,3.0,92,0.01,,,0.34,0.0,meteohub,2013-07-18 01:26:00,
2013-07-17 21:31:00,76.8,74.3,30.09,ESE,112,1.0,3.0,92,0.00,,,0.34,0.0,meteohub,2013-07-18 01:31:00,
2013-07-17 21:36:00,77.0,74.5,30.09,SE,132,1.0,3.0,92,0.00,,,0.34,0.0,meteohub,2013-07-18 01:36:00,
2013-07-17 21:41:00,77.2,74.3,30.09,SE,133,2.0,4.0,91,0.00,,,0.34,0.0,meteohub,2013-07-18 01:41:00,
2013-07-17 21:46:00,77.2,74.3,30.09,SSE,150,2.0,5.0,91,0.00,,,0.34,0.0,meteohub,2013-07-18 01:46:00,
2013-07-17 21:51:00,77.0,74.1,30.09,SE,142,2.0,5.0,91,0.00,,,0.34,0.0,meteohub,2013-07-18 01:51:00,
2013-07-17 21:56:00,76.8,73.9,30.09,SSE,154,1.0,5.0,91,0.00,,,0.34,0.0,meteohub,2013-07-18 01:56:00,
2013-07-17 22:01:00,76.6,73.8,30.09,SSE,153,1.0,5.0,91,0.00,,,0.34,0.0,meteohub,2013-07-18 02:01:00,
2013-07-17 22:06:00,76.3,73.8,30.09,SSE,153,2.0,5.0,92,0.00,,,0.34,0.0,meteohub,2013-07-18 02:06:00,
2013-07-17 22:11:00,75.9,73.4,30.09,SSE,165,3.0,5.0,92,0.01,,,0.35,0.0,meteohub,2013-07-18 02:11:00,
2013-07-17 22:16:00,75.7,73.2,30.09,SE,137,3.0,4.0,92,0.01,,,0.35,0.0,meteohub,2013-07-18 02:16:00,
2013-07-17 22:21:00,75.2,72.7,30.10,SSE,148,2.0,7.0,92,0.01,,,0.35,0.0,meteohub,2013-07-18 02:21:00,
2013-07-17 22:26:00,75.0,72.5,30.09,SSE,148,2.0,7.0,92,0.01,,,0.35,0.0,meteohub,2013-07-18 02:26:00,
2013-07-17 22:31:00,74.8,72.3,30.09,SSE,148,0.0,7.0,92,0.02,,,0.36,0.0,meteohub,2013-07-18 02:31:00,
2013-07-17 22:36:00,74.8,72.3,30.10,SSE,148,0.0,3.0,92,0.02,,,0.36,0.0,meteohub,2013-07-18 02:36:00,
2013-07-17 22:41:00,74.8,72.3,30.09,SSE,148,0.0,3.0,92,0.02,,,0.36,0.0,meteohub,2013-07-18 02:41:00,
2013-07-17 22:46:00,74.8,72.3,30.09,SSE,148,0.0,1.0,92,0.02,,,0.36,0.0,meteohub,2013-07-18 02:46:00,
2013-07-17 22:51:00,75.0,72.9,30.10,SSE,148,0.0,1.0,93,0.02,,,0.36,0.0,meteohub,2013-07-18 02:51:00,
2013-07-17 22:56:00,75.0,72.9,30.10,SSE,148,0.0,2.0,93,0.02,,,0.36,0.0,meteohub,2013-07-18 02:56:00,
2013-07-17 23:01:00,75.0,72.9,30.10,SSE,148,1.0,3.0,93,0.02,,,0.36,0.0,meteohub,2013-07-18 03:01:00,
2013-07-17 23:06:00,75.0,73.2,30.09,ESE,105,1.0,3.0,94,0.02,,,0.37,0.0,meteohub,2013-07-18 03:06:00,
2013-07-17 23:07:00,75.0,73.2,30.09,ESE,105,2.0,3.0,94,0.02,,,0.37,0.0,meteohub,2013-07-18 03:07:00,
2013-07-17 23:12:00,75.4,73.6,30.09,ESE,105,1.0,3.0,94,0.03,,,0.38,0.0,meteohub,2013-07-18 03:12:00,
2013-07-17 23:18:00,75.4,73.6,30.09,ESE,105,2.0,3.0,94,0.03,,,0.38,0.0,meteohub,2013-07-18 03:18:00,
2013-07-17 23:23:00,75.2,73.4,30.09,ESE,104,3.0,4.0,94,0.03,,,0.38,0.0,meteohub,2013-07-18 03:23:00,
2013-07-17 23:28:00,75.0,73.2,30.09,ESE,104,2.0,4.0,94,0.04,,,0.39,0.0,meteohub,2013-07-18 03:28:00,
2013-07-17 23:33:00,75.0,73.2,30.09,ESE,104,1.0,4.0,94,0.03,,,0.39,0.0,meteohub,2013-07-18 03:33:00,
2013-07-17 23:38:00,75.0,73.2,30.09,ESE,104,0.0,3.0,94,0.03,,,0.39,0.0,meteohub,2013-07-18 03:38:00,
2013-07-17 23:43:00,74.8,73.0,30.09,ESE,104,0.0,2.0,94,0.03,,,0.39,0.0,meteohub,2013-07-18 03:43:00,
2013-07-17 23:48:00,74.8,73.0,30.09,ESE,104,0.0,2.0,94,0.03,,,0.39,0.0,meteohub,2013-07-18 03:48:00,
2013-07-17 23:53:00,74.8,73.0,30.09,ESE,104,1.0,1.0,94,0.03,,,0.39,0.0,meteohub,2013-07-18 03:53:00,
2013-07-17 23:58:00,74.8,73.0,30.09,ESE,104,2.0,2.0,94,0.03,,,0.39,0.0,meteohub,2013-07-18 03:58:00,